Weather in Dakhovskaya

Russia / Republic of Adygea     44°13′42″N   40°12′04″E
temp.,
°C
wind,
m/s
gust,
m/s
humid.,
%
clouds,
%
prec.,
mm/h
press.,
hPa
HPBL,
m
27 october, wed
wed2700:000s22871 0.0 103015
03:000s22750 0.0 102916
06:00+1s22640 0.0 102715
09:00+8w11440 0.0 1025121
12:00+12nnw22380 0.0 1024513
15:00+11nnw21450 0.0 1023527
18:00+5s11730 0.0 102410
21:00+4s21790 0.0 102411
28 october, thu
thu2800:00+4s22780 0.0 102414
03:00+4s22730 0.0 102415
06:00+3ssw22710 0.0 102412
09:00+7nnw11580 0.0 1025192
12:00+11n21510 0.0 1023792
15:00+10n22570 0.0 1022895
18:00+5nw00913 0.0 102410
21:00+5ssw119277 0.0 102516
29 october, fri
fri2900:00+4s119224 0.0 102416
03:00+3s219320 0.0 102517
06:00+2sse119081 0.0 102610
09:00+6se127531 0.0 1025210
12:00+10ne22606 0.0 1023959
15:00+10ne336089 0.0 10231217
18:00+7ene247496 0.0 1025144
21:00+5ese228045 0.0 102637
30 october, sat
sat3000:00+3sse22904 0.0 102626
03:00+3sse219012 0.0 102715
06:00+3sse118774 0.0 102711
09:00+7e1172100 0.0 1027184
12:00+10nne216193 0.0 1026701
15:00+11ne21593 0.0 1026879
18:00+6se23831 0.0 102747
21:00+5sse22880 0.0 102721
31 october, sun
sun3100:00+5sse22840 0.0 102614
03:00+5s22790 0.0 102517
06:00+6sse227493 0.0 102414
09:00+11sse1260100 0.0 102281
12:00+15nne2150100 0.0 1021455
15:00+14nne215699 0.0 1020447
18:00+9sse1179100 0.0 102111
21:00+9ssw1176100 0.0 102011